Hourly Data Report for November 14, 2020

L'ASSOMPTION
QUEBEC
Current Station Operator: ECCC - MSC

45°48'34.000" N
73°26'05.000" W
21.00 m
7014160
71524
WEW

Download Data

Hourly Data (November 2020)
Hourly Data Report for November 14, 2020
TIME
LST
Temp Definition
°C
Dew Point Definition
°C
Rel Hum Definition
%
Precip. Amount Definition
mm

Wind Dir Definition
10's deg

Wind Spd Definition
km/h
Visibility Definition
km
Stn Press Definition
kPa
Hmdx Definition


Wind Chill Definition


Weather Definition


00:00 0.0 -1.5 90 0.0 23 7   101.07   -2 LegendNANA
01:00 0.2 -1.4 89 0.0 24 8   101.09     LegendNANA
02:00 0.0 -1.5 90 0.0 24 7   101.08   -2 LegendNANA
03:00 0.2 -1.0 92 0.0 24 5   101.10     LegendNANA
04:00 -0.1 -1.5 90 0.0 23 4   101.13   -1 LegendNANA
05:00 -0.5 -1.4 94 0.0 22 10   101.19   -4 LegendNANA
06:00 1.0 -0.3 91 0.0 24 9   101.26     LegendNANA
07:00 2.2 0.6 89 0.0 24 9   101.33     LegendNANA
08:00 2.8 1.1 89 0.0 23 8   101.42     LegendNANA
09:00 3.8 1.6 86 0.0 24 10   101.49     LegendNANA
10:00 5.0 0.7 74 0.0 26 9   101.54     LegendNANA
11:00 6.0 -0.8 62 0.0 27 11   101.57     LegendNANA
12:00 6.2 -2.6 53 0.0 28 11   101.58     LegendNANA
13:00 5.4 -4.0 51 0.0 27 9   101.65     LegendNANA
14:00 5.1 -4.3 51 0.0 27 14   101.72     LegendNANA
15:00 4.4 -4.5 53 0.0 28 11   101.84     LegendNANA
16:00 4.1 -5.3 50 0.0 29 10   101.94     LegendNANA
17:00 2.4 -5.0 58 0.0 29 3   101.98     LegendNANA
18:00 1.8 -5.7 58 0.0 29 7   102.08     LegendNANA
19:00 0.2 -5.9 63 0.0 28 5   102.14     LegendNANA
20:00 -1.2 -6.0 70 0.0 24 4   102.19   -3 LegendNANA
21:00 -2.1 -5.9 75 0.0 28 2   102.22   -3 LegendNANA
22:00 -1.8 -5.8 74 0.0 31 5   102.24   -4 LegendNANA
23:00 -3.0 -5.9 81 0.0 29 1   102.18   -3 LegendNANA

Notes on Data Quality.

Legend

  • E = Estimated
  • M = Missing
  • NA = Not Available*
  • [empty] = Indicates an unobserved value
Date modified: